Time,TemperatureF,DewpointF,PressureIn,WindDirection,WindDirectionDegrees,WindSpeedMPH,WindSpeedGustMPH,Humidity,HourlyPrecipIn,Conditions,Clouds,dailyrainin,SoftwareType,DateUTC
2013-03-20 00:00:00,33.4,27.6,29.87,NNE,22,0.0,0.0,79,0.00,RA,,0.00,WeatherDisplay:10.37,2013-03-20 07:00:00,
2013-03-20 00:15:00,33.4,27.6,29.86,NNE,22,0.0,0.0,79,0.00,OVC,,0.00,WeatherDisplay:10.37,2013-03-20 07:15:00,
2013-03-20 00:30:00,33.6,27.8,29.85,NNE,22,0.0,0.0,79,0.00,OVC,,0.00,WeatherDisplay:10.37,2013-03-20 07:30:00,
2013-03-20 00:45:00,33.6,28.1,29.85,NNE,22,0.0,0.0,80,0.00,OVC,,0.00,WeatherDisplay:10.37,2013-03-20 07:45:00,
2013-03-20 01:00:00,33.6,28.1,29.84,NNE,22,0.0,0.0,80,0.00,OVC,,0.00,WeatherDisplay:10.37,2013-03-20 08:00:00,
2013-03-20 01:15:00,34.2,28.0,29.83,NNE,22,0.0,0.0,78,0.00,OVC,,0.00,WeatherDisplay:10.37,2013-03-20 08:15:00,
2013-03-20 01:30:00,34.0,28.2,29.82,NNE,22,0.0,0.0,79,0.00,OVC,,0.00,WeatherDisplay:10.37,2013-03-20 08:30:00,
2013-03-20 01:45:00,33.6,28.1,29.82,NNE,22,0.0,0.0,80,0.00,OVC,,0.00,WeatherDisplay:10.37,2013-03-20 08:45:00,
2013-03-20 02:00:00,33.1,27.9,29.82,NNE,22,0.0,0.0,81,0.00,OVC,,0.00,WeatherDisplay:10.37,2013-03-20 09:00:00,
2013-03-20 02:15:00,32.5,28.0,29.81,NNE,22,0.0,0.0,83,0.00,OVC,,0.00,WeatherDisplay:10.37,2013-03-20 09:15:00,
2013-03-20 02:30:00,32.2,27.6,29.80,NNE,22,0.0,0.0,83,0.00,OVC,,0.00,WeatherDisplay:10.37,2013-03-20 09:30:00,
2013-03-20 02:45:00,31.8,27.5,29.80,NNE,22,0.0,0.0,84,0.00,OVC,,0.00,WeatherDisplay:10.37,2013-03-20 09:45:00,
2013-03-20 03:00:00,31.8,27.5,29.79,NNE,22,0.0,0.0,84,0.00,OVC,,0.00,WeatherDisplay:10.37,2013-03-20 10:00:00,
2013-03-20 03:15:00,31.8,27.8,29.78,NNE,22,0.0,0.0,85,0.00,OVC,,0.00,WeatherDisplay:10.37,2013-03-20 10:15:00,
2013-03-20 03:30:00,31.8,27.8,29.77,NNE,22,0.0,0.0,85,0.00,OVC,,0.00,WeatherDisplay:10.37,2013-03-20 10:30:00,
2013-03-20 03:45:00,31.8,28.1,29.76,NNE,22,0.0,0.0,86,0.00,OVC,,0.00,WeatherDisplay:10.37,2013-03-20 10:45:00,
2013-03-20 04:00:00,31.8,28.1,29.75,NNE,22,0.0,0.0,86,0.00,-RA,,0.00,WeatherDisplay:10.37,2013-03-20 11:00:00,
2013-03-20 04:15:00,31.8,28.1,29.75,NNE,22,0.0,0.0,86,0.00,-RA,,0.00,WeatherDisplay:10.37,2013-03-20 11:15:00,
2013-03-20 04:45:00,32.2,28.5,29.74,NNE,22,0.0,0.0,86,0.00,-RA,,0.00,WeatherDisplay:10.37,2013-03-20 11:45:00,
2013-03-20 05:00:00,32.2,28.5,29.74,NNE,22,0.0,0.0,86,0.00,-RA,,0.00,WeatherDisplay:10.37,2013-03-20 12:00:00,
2013-03-20 05:15:00,32.2,28.7,29.73,NNE,22,0.0,0.0,87,0.00,-RA,,0.00,WeatherDisplay:10.37,2013-03-20 12:15:00,
2013-03-20 05:30:00,32.2,28.7,29.73,NNE,22,0.0,0.0,87,0.00,-RA,,0.00,WeatherDisplay:10.37,2013-03-20 12:30:00,
2013-03-20 05:45:00,32.2,28.7,29.72,NNE,22,0.0,0.0,87,0.00,-RA,,0.00,WeatherDisplay:10.37,2013-03-20 12:45:00,
2013-03-20 06:00:00,32.2,28.7,29.71,NNE,22,0.0,0.0,87,0.00,OVC,,0.00,WeatherDisplay:10.37,2013-03-20 13:00:00,
2013-03-20 06:15:00,32.2,28.7,29.70,NNE,22,0.0,0.0,87,0.00,OVC,,0.00,WeatherDisplay:10.37,2013-03-20 13:15:00,
2013-03-20 06:30:00,32.2,28.7,29.69,NNE,22,0.0,0.0,87,0.00,OVC,,0.00,WeatherDisplay:10.37,2013-03-20 13:30:00,
2013-03-20 06:45:00,32.2,28.7,29.69,NNE,22,0.0,0.0,87,0.00,OVC,,0.00,WeatherDisplay:10.37,2013-03-20 13:45:00,
2013-03-20 07:00:00,32.4,28.9,29.69,NNE,22,0.0,0.0,87,0.00,-RA,,0.00,WeatherDisplay:10.37,2013-03-20 14:00:00,
2013-03-20 07:15:00,32.2,28.8,29.68,NNE,22,0.0,0.0,87,0.02,-RA,,0.02,WeatherDisplay:10.37,2013-03-20 14:15:00,
2013-03-20 07:30:00,32.4,28.9,29.68,NNE,22,0.0,0.0,87,0.00,OVC,,0.02,WeatherDisplay:10.37,2013-03-20 14:30:00,
2013-03-20 07:45:00,32.5,29.1,29.68,NNE,22,0.0,0.0,87,0.00,OVC,,0.02,WeatherDisplay:10.37,2013-03-20 14:45:00,
2013-03-20 08:00:00,32.5,29.1,29.67,NNE,22,0.0,0.0,87,0.00,OVC,,0.02,WeatherDisplay:10.37,2013-03-20 15:00:00,
2013-03-20 08:15:00,32.7,29.3,29.67,NNE,22,0.0,0.0,87,0.02,OVC,,0.04,WeatherDisplay:10.37,2013-03-20 15:15:00,
2013-03-20 08:30:00,32.8,29.4,29.67,NNE,22,0.0,0.0,87,0.00,-RA,,0.04,WeatherDisplay:10.37,2013-03-20 15:30:00,
2013-03-20 08:45:00,32.7,29.3,29.66,NNE,22,0.0,0.0,87,0.02,-RA,,0.06,WeatherDisplay:10.37,2013-03-20 15:45:00,
2013-03-20 09:00:00,33.1,29.6,29.65,NNE,22,0.0,0.0,87,0.02,OVC,,0.08,WeatherDisplay:10.37,2013-03-20 16:00:00,
2013-03-20 09:15:00,33.6,30.2,29.64,NNE,22,0.0,0.0,87,0.02,OVC,,0.10,WeatherDisplay:10.37,2013-03-20 16:15:00,
2013-03-20 09:30:00,33.8,30.3,29.63,East,90,0.0,0.0,87,0.00,-RA,,0.10,WeatherDisplay:10.37,2013-03-20 16:30:00,
2013-03-20 09:45:00,34.0,30.5,29.63,East,90,0.0,0.0,87,0.02,-RA,,0.12,WeatherDisplay:10.37,2013-03-20 16:45:00,
2013-03-20 10:00:00,34.2,30.7,29.63,East,90,0.0,0.0,87,0.02,RA,,0.14,WeatherDisplay:10.37,2013-03-20 17:00:00,
2013-03-20 10:15:00,34.3,30.9,29.63,East,90,0.0,0.0,87,0.00,OVC,,0.14,WeatherDisplay:10.37,2013-03-20 17:15:00,
2013-03-20 10:30:00,34.5,31.3,29.62,East,90,0.0,0.0,88,0.02,OVC,,0.16,WeatherDisplay:10.37,2013-03-20 17:30:00,
2013-03-20 10:45:00,34.9,31.4,29.62,East,90,0.0,0.0,87,0.02,OVC,,0.18,WeatherDisplay:10.37,2013-03-20 17:45:00,
2013-03-20 11:00:00,35.2,31.8,29.61,East,90,0.0,0.0,87,0.00,-RA,,0.18,WeatherDisplay:10.37,2013-03-20 18:00:00,
2013-03-20 11:15:00,35.4,31.9,29.60,ENE,68,0.0,0.0,87,0.02,OVC,,0.20,WeatherDisplay:10.37,2013-03-20 18:15:00,
2013-03-20 11:30:00,35.8,32.3,29.60,ENE,68,0.0,0.0,87,0.00,OVC,,0.20,WeatherDisplay:10.37,2013-03-20 18:30:00,
2013-03-20 11:45:00,36.3,32.8,29.60,ENE,68,0.0,0.0,87,0.02,OVC,,0.22,WeatherDisplay:10.37,2013-03-20 18:45:00,
2013-03-20 12:00:00,37.0,33.5,29.59,ENE,68,0.0,0.0,87,0.02,RA,,0.24,WeatherDisplay:10.37,2013-03-20 19:00:00,
2013-03-20 12:15:00,37.9,34.4,29.59,ENE,68,0.0,0.0,87,0.00,OVC,,0.24,WeatherDisplay:10.37,2013-03-20 19:15:00,
2013-03-20 12:30:00,38.5,34.9,29.58,ENE,68,0.0,0.0,87,0.02,-RA,,0.26,WeatherDisplay:10.37,2013-03-20 19:30:00,
2013-03-20 12:45:00,38.8,35.3,29.57,ENE,68,0.0,0.0,87,0.00,-RA,,0.26,WeatherDisplay:10.37,2013-03-20 19:45:00,
2013-03-20 13:00:00,39.0,35.5,29.56,ENE,68,0.0,0.0,87,0.02,OVC,,0.28,WeatherDisplay:10.37,2013-03-20 20:00:00,
2013-03-20 13:15:00,39.0,35.5,29.55,ENE,68,0.0,0.0,87,0.00,-RA,,0.28,WeatherDisplay:10.37,2013-03-20 20:15:00,
2013-03-20 13:30:00,39.4,36.1,29.54,ENE,68,0.0,0.0,88,0.00,-RA,,0.28,WeatherDisplay:10.37,2013-03-20 20:30:00,
2013-03-20 13:45:00,39.6,36.0,29.53,ENE,68,0.0,0.0,87,0.00,-RA,,0.28,WeatherDisplay:10.37,2013-03-20 20:45:00,
2013-03-20 14:00:00,39.0,35.5,29.53,ENE,58,0.0,0.0,87,0.00,OVC,,0.28,WeatherDisplay:10.37,2013-03-20 21:00:00,
2013-03-20 14:15:00,38.8,35.3,29.54,ESE,110,2.0,4.0,87,0.08,RA,,0.36,WeatherDisplay:10.37,2013-03-20 21:15:00,
2013-03-20 14:30:00,40.8,37.5,29.54,South,181,6.0,14.0,88,0.04,OVC,,0.40,WeatherDisplay:10.37,2013-03-20 21:30:00,
2013-03-20 14:45:00,41.5,38.0,29.54,SSE,158,2.0,8.0,87,0.02,OVC,,0.42,WeatherDisplay:10.37,2013-03-20 21:45:00,
2013-03-20 15:00:00,41.5,38.0,29.54,SSE,152,6.0,7.0,87,0.00,OVC,,0.42,WeatherDisplay:10.37,2013-03-20 22:00:00,
2013-03-20 15:15:00,41.5,38.0,29.54,South,189,2.0,9.0,87,0.00,OVC,,0.42,WeatherDisplay:10.37,2013-03-20 22:15:00,
2013-03-20 15:30:00,41.5,38.0,29.55,South,180,1.0,3.0,87,0.00,OVC,,0.42,WeatherDisplay:10.37,2013-03-20 22:30:00,
2013-03-20 15:45:00,41.6,38.0,29.55,South,172,6.0,9.0,87,0.00,OVC,,0.42,WeatherDisplay:10.37,2013-03-20 22:45:00,
2013-03-20 16:00:00,42.6,39.0,29.54,South,174,7.0,9.0,87,0.00,OVC,,0.42,WeatherDisplay:10.37,2013-03-20 23:00:00,
2013-03-20 16:15:00,43.2,39.6,29.56,South,187,7.0,8.0,87,0.00,OVC,,0.42,WeatherDisplay:10.37,2013-03-20 23:15:00,
2013-03-20 16:30:00,43.2,39.6,29.56,South,191,6.0,22.0,87,0.00,OVC,,0.42,WeatherDisplay:10.37,2013-03-20 23:30:00,
2013-03-20 16:45:00,43.2,39.6,29.56,SSE,163,6.0,13.0,87,0.02,RA,,0.44,WeatherDisplay:10.37,2013-03-20 23:45:00,
2013-03-20 17:00:00,43.5,39.9,29.56,SSE,167,7.0,14.0,87,0.00,OVC,,0.44,WeatherDisplay:10.37,2013-03-21 00:00:00,
2013-03-20 17:15:00,43.5,39.9,29.56,SSW,211,7.0,12.0,87,0.00,OVC,,0.44,WeatherDisplay:10.37,2013-03-21 00:15:00,
2013-03-20 17:30:00,43.2,39.6,29.56,South,187,7.0,12.0,87,0.00,OVC,,0.44,WeatherDisplay:10.37,2013-03-21 00:30:00,
2013-03-20 17:45:00,42.0,38.4,29.57,SSW,205,6.0,36.0,87,0.00,OVC,,0.44,WeatherDisplay:10.37,2013-03-21 00:45:00,
2013-03-20 18:00:00,41.7,38.1,29.57,South,173,15.0,15.0,87,0.02,RA,,0.46,WeatherDisplay:10.37,2013-03-21 01:00:00,
2013-03-20 18:15:00,38.1,34.6,29.61,SSW,197,5.0,11.0,87,0.00,-RA,,0.46,WeatherDisplay:10.37,2013-03-21 01:15:00,
2013-03-20 18:30:00,38.1,34.6,29.59,South,180,8.0,14.0,87,0.00,-RA,,0.46,WeatherDisplay:10.37,2013-03-21 01:30:00,
2013-03-20 18:45:00,37.8,34.2,29.60,South,175,8.0,10.0,87,0.02,-RA,,0.48,WeatherDisplay:10.37,2013-03-21 01:45:00,
2013-03-20 19:00:00,37.2,33.7,29.61,South,176,8.0,9.0,87,0.00, +RA,,0.48,WeatherDisplay:10.37,2013-03-21 02:00:00,
2013-03-20 19:15:00,35.8,32.3,29.61,SSE,166,8.0,9.0,87,0.00,BKN,,0.48,WeatherDisplay:10.37,2013-03-21 02:15:00,
2013-03-20 19:30:00,35.2,32.0,29.62,South,179,3.0,6.0,88,0.00,BKN,,0.48,WeatherDisplay:10.37,2013-03-21 02:30:00,
2013-03-20 19:45:00,34.9,31.7,29.63,South,186,2.0,8.0,88,0.00,BKN,,0.48,WeatherDisplay:10.37,2013-03-21 02:45:00,
2013-03-20 20:00:00,35.6,32.4,29.63,South,174,5.0,7.0,88,0.00,SCT,,0.48,WeatherDisplay:10.37,2013-03-21 03:00:00,
2013-03-20 20:15:00,36.0,32.8,29.64,South,170,5.0,6.0,88,0.00,BKN,,0.48,WeatherDisplay:10.37,2013-03-21 03:15:00,
2013-03-20 20:30:00,35.8,32.6,29.65,South,176,5.0,8.0,88,0.00,BKN,,0.48,WeatherDisplay:10.37,2013-03-21 03:30:00,
2013-03-20 20:45:00,35.4,32.2,29.66,South,181,5.0,8.0,88,0.00,BKN,,0.48,WeatherDisplay:10.37,2013-03-21 03:45:00,
2013-03-20 21:00:00,35.4,32.2,29.67,SSE,168,3.0,11.0,88,0.00,OVC,,0.48,WeatherDisplay:10.37,2013-03-21 04:00:00,
2013-03-20 21:15:00,36.0,32.8,29.67,South,188,6.0,7.0,88,0.00,OVC,,0.48,WeatherDisplay:10.37,2013-03-21 04:15:00,
2013-03-20 21:30:00,36.9,33.1,29.67,SSW,194,8.0,14.0,86,0.00,BKN,,0.48,WeatherDisplay:10.37,2013-03-21 04:30:00,
2013-03-20 21:45:00,36.3,32.5,29.68,South,176,5.0,8.0,86,0.00,BKN,,0.48,WeatherDisplay:10.37,2013-03-21 04:45:00,
2013-03-20 22:00:00,35.4,31.9,29.69,SSW,211,3.0,11.0,87,0.00,OVC,,0.48,WeatherDisplay:10.37,2013-03-21 05:00:00,
2013-03-20 22:15:00,35.1,31.6,29.69,SSW,212,7.0,10.0,87,0.00,OVC,,0.48,WeatherDisplay:10.37,2013-03-21 05:15:00,
2013-03-20 22:30:00,35.1,31.6,29.69,South,176,8.0,12.0,87,0.00,OVC,,0.48,WeatherDisplay:10.37,2013-03-21 05:30:00,
2013-03-20 22:45:00,35.2,31.8,29.69,SSW,206,10.0,13.0,87,0.00,OVC,,0.48,WeatherDisplay:10.37,2013-03-21 05:45:00,
2013-03-20 23:00:00,35.4,31.9,29.70,South,189,9.0,13.0,87,0.00,BKN,,0.48,WeatherDisplay:10.37,2013-03-21 06:00:00,
2013-03-20 23:15:00,35.4,31.9,29.71,SSW,193,6.0,8.0,87,0.00,BKN,,0.48,WeatherDisplay:10.37,2013-03-21 06:15:00,
2013-03-20 23:30:00,35.8,32.0,29.72,SSW,197,7.0,12.0,86,0.00,OVC,,0.48,WeatherDisplay:10.37,2013-03-21 06:30:00,
2013-03-20 23:45:00,36.0,31.9,29.72,SSW,193,9.0,11.0,85,0.00,OVC,,0.48,WeatherDisplay:10.37,2013-03-21 06:45:00,